THORAD AGENA D DEB, 4778

Orbit data source: Space-Track

THORAD AGENA D DEB, 4778 is space debris in SSO originally from a launch on Wed, 08 Apr 1970 UTC launched from the Air Force Western Test Range (AFWTR). Debris objects in space refer to the collection of defunct objects orbiting the Earth. Examples of debris include non-operational satellites, rocket bodies, and fragments generated from explosions, collisions, or faulty payload assembly.

Loading next visibility...
Identifier
4778, 1970-025DY
Orbit
SSO
Country
Flag of USUS
Related business
Manufacturer
Unknown
Mission
Spacecraft
Bus & Motor
Unknown
Mass
Unknown
Launch date (UTC)
1970-04-08 (56 years ago)
Launch vehicle
Unknown
Launch site
Air Force Western Test Range (AFWTR)
Object type
Payload
Rocket body
Debris
Shape & HBR
Unknown shape, 0.1 m
Radar Cross Section
Small (<0.1 m²)

Expand to show TLE details & history
Last TLE update: 2 days ago

TLE from 2 days ago
0 THORAD AGENA D DEB
1  4778U 70025DY  25306.44210248  .00000225  00000-0  38966-3 0  9995
2  4778  99.9944   3.3777 0034655 262.3016 114.3865 13.55554613740706
Epoch: 2025-11-02T10:36Z
TLE epoch observation values (Epoch: 2025-11-02T10:36:37.654Z)
Latitude
16.76945°
Longitude
159.23467°
Altitude
1,064.759 km
Speed
7.316 km/s
True Right ascension
00h 01m 23s
True Declination
16° 40' 43"
Sunlit
Object was in full shadow at epoch
Visualization orbit readout
Latitude
Unknown
Longitude
Unknown
Altitude
Unknown
Speed
Unknown
Apparent Right ascension
Unknown
Apparent Declination
Unknown
Sunlit
N/A
Visualization observer readout
Local Sidereal Time
23:07:35
Azimuth
Unknown
Elevation
Unknown
Doppler factor
Unknown
Orbital elements
Apogee altitude
1,074.941 km
Perigee altitude
1,023.462 km
Semi-major axis
7,427.338 km
Eccentricity
0.00347
Inclination
99.9944°
RAAN
3.3777°
Arg. of periapsis
262.3016°
True anomaly
114.74754°
Mean anomaly
114.3865°
Eccentric anomaly
114.56708°
Mean motion
3.39073 °/min
Orbital period
106.17 mins
BSTAR
0.00038966
Loading maneuver chart data...
Computing Atmospheric mass density...

Documentation

Showing up to 5 results
|